Waarnemingen

Advertentie
Mijn weer
Dunkerque, Frankrijk (7010): temperatuur & dauwpunt: 09.10.2019 21:00:00 - 15.10.2019 21:00:00 (CEST)Dunkerque, Frankrijk (7010): windsnelheid & windstoten: 09.10.2019 21:00:00 - 15.10.2019 21:00:00 (CEST)Dunkerque, Frankrijk (7010): windrichting: 09.10.2019 21:00:00 - 15.10.2019 21:00:00 (CEST)Dunkerque, Frankrijk (7010): luchtdruk: 09.10.2019 21:00:00 - 15.10.2019 21:00:00 (CEST)Dunkerque, Frankrijk (7010): zicht: 09.10.2019 21:00:00 - 15.10.2019 21:00:00 (CEST)Dunkerque, Frankrijk (7010): neerslag: 09.10.2019 21:00:00 - 15.10.2019 21:00:00 (CEST)
Datum & Tijd tt [°C] td [°C] ff [km/u] ff [kn] fx [km/u] fx [kn] dd ppp [hPa] vv [km] rr [mm]
15.10.2019 21:00:00 13,3 10,5 10 5 16 9 ZZW 1007,2 - 0,0
15.10.2019 20:00:00 13,8 10,4 10 5 24 13 ZZW 1007,1 - 0,0
15.10.2019 19:00:00 14,5 11,1 14 7 24 13 ZZW 1006,8 - 0,0
15.10.2019 18:00:00 15,0 11,4 16 9 32 17 ZW 1006,0 - 0,0
15.10.2019 17:00:00 15,2 11,4 21 11 37 20 ZW 1005,7 10 0,0
15.10.2019 16:00:00 15,4 11,6 19 10 35 19 ZW 1005,7 - 0,0
15.10.2019 15:00:00 15,6 12,2 19 10 34 18 ZW 1005,5 - 0,2
15.10.2019 14:00:00 14,3 13,2 17 9 37 20 ZZW 1005,6 6 0,2
15.10.2019 13:00:00 15,2 12,7 19 10 32 17 ZZW 1005,6 - 0,0
15.10.2019 12:00:00 15,1 12,2 19 10 29 15 ZZW 1005,7 - 0,0
15.10.2019 11:00:00 14,5 12,2 15 8 25 14 ZZW 1005,4 20 0,0
15.10.2019 10:00:00 13,8 12,0 13 7 22 12 Z 1004,9 - 0,0
15.10.2019 09:00:00 13,8 12,4 14 7 23 12 Z 1004,9 - 0,0
15.10.2019 08:00:00 13,9 12,8 11 6 25 14 ZZW 1004,5 - 0,0
15.10.2019 07:00:00 14,0 13,0 16 9 26 14 ZZW 1004,2 - 0,0
15.10.2019 06:00:00 14,2 13,4 12 6 24 13 Z 1004,2 - 0,0
15.10.2019 05:00:00 14,5 13,4 14 8 31 17 ZZW 1003,9 - 0,0
15.10.2019 04:00:00 15,0 13,5 16 9 24 13 ZW 1003,5 - 0,0
15.10.2019 03:00:00 15,1 13,1 15 8 34 18 ZW 1003,6 - 0,0
15.10.2019 02:00:00 15,4 13,4 23 12 36 19 ZZW 1004,1 15 0,0
15.10.2019 01:00:00 15,4 13,8 15 8 27 15 ZZW 1003,9 - 0,0
15.10.2019 00:00:00 15,1 14,0 13 7 23 12 Z 1004,0 - 0,0
14.10.2019 23:00:00 15,2 14,1 17 9 28 15 ZZO 1003,0 - 0,0
14.10.2019 22:00:00 15,6 14,3 16 9 28 15 ZO 1002,8 - 0,8
14.10.2019 21:00:00 16,2 14,4 23 13 61 33 ZZW 1005,2 - 4,9
14.10.2019 20:00:00 19,1 15,8 17 9 28 15 ZO 1003,1 - 0,0
14.10.2019 19:00:00 19,2 15,5 21 12 35 19 ZO 1003,0 - 0,0
14.10.2019 18:00:00 19,7 15,6 22 12 30 16 ZO 1003,5 - 0,0
14.10.2019 17:00:00 20,5 15,3 21 11 35 19 ZO 1003,5 - 0,0
14.10.2019 16:00:00 20,6 15,2 25 13 32 18 ZZO 1004,5 - 0,0
14.10.2019 15:00:00 19,7 15,3 18 10 31 17 ZO 1005,6 - 0,0
14.10.2019 14:00:00 17,4 15,4 12 6 27 15 O 1006,7 - 0,2
14.10.2019 13:00:00 15,6 13,8 21 11 29 16 O 1007,5 - 0,0
14.10.2019 12:00:00 14,5 12,9 27 15 41 22 O 1008,4 - 0,0
14.10.2019 11:00:00 13,6 12,0 23 13 44 24 ONO 1009,8 - 2,6
14.10.2019 10:00:00 13,2 11,3 24 13 35 19 ONO 1009,8 - 1,4
14.10.2019 09:00:00 13,4 11,8 11 6 19 11 OZO 1010,9 - 0,2
14.10.2019 08:00:00 13,5 11,2 16 9 24 13 OZO 1010,8 - 0,0
14.10.2019 07:00:00 13,4 11,3 8 4 13 7 ZO 1011,8 - 0,0
14.10.2019 06:00:00 13,3 11,7 8 4 11 6 ZZO 1012,4 - 0,0
14.10.2019 05:00:00 13,3 11,4 5 3 10 5 ZZO 1011,8 - 0,0
14.10.2019 04:00:00 13,3 11,0 7 4 10 5 ZO 1011,8 - 0,0
14.10.2019 03:00:00 13,6 10,6 4 2 17 9 ZZO 1012,4 - 0,0
14.10.2019 02:00:00 14,9 10,7 6 4 24 13 ZZW 1013,1 15 0,0
14.10.2019 01:00:00 15,1 10,7 18 10 31 17 W 1012,4 - 0,0
14.10.2019 00:00:00 15,1 10,5 22 12 41 22 W 1011,9 - 0,0
13.10.2019 23:00:00 15,1 12,0 22 12 34 18 W 1011,4 - 0,0
13.10.2019 22:00:00 15,8 12,4 18 10 37 20 ZW 1010,4 - 0,0
13.10.2019 21:00:00 16,2 12,7 21 11 40 21 ZW 1009,3 - 0,0
13.10.2019 20:00:00 16,5 13,6 26 14 48 26 ZW 1008,4 15 0,0
13.10.2019 19:00:00 16,6 13,5 21 12 45 24 ZW 1007,5 - 0,0
13.10.2019 18:00:00 16,8 12,9 20 11 50 27 WZW 1006,5 - 0,0
13.10.2019 17:00:00 18,1 13,8 29 16 66 35 WZW 1005,7 15 0,0
13.10.2019 16:00:00 19,6 14,8 27 15 47 25 ZZW 1004,8 - 0,0
13.10.2019 15:00:00 19,3 15,8 23 12 46 25 ZZW 1004,3 - 0,2
13.10.2019 14:00:00 19,4 15,9 26 14 44 24 ZZW 1004,4 - 0,0
13.10.2019 13:00:00 19,4 16,2 23 12 38 20 Z 1003,9 - 0,0
13.10.2019 12:00:00 18,2 16,2 18 10 31 17 Z 1004,3 - 0,0
13.10.2019 11:00:00 17,1 15,4 19 10 29 15 Z 1004,6 - 0,0
13.10.2019 10:00:00 15,9 14,8 18 10 29 16 Z 1004,8 - 0,0
13.10.2019 09:00:00 15,0 13,9 16 9 24 13 ZZO 1005,0 - 0,0
13.10.2019 08:00:00 14,6 13,5 16 9 26 14 Z 1005,2 15 0,0
13.10.2019 07:00:00 13,9 12,9 14 8 21 12 Z 1005,7 - 0,0
13.10.2019 06:00:00 14,3 13,2 10 5 18 10 Z 1006,3 - 0,0
13.10.2019 05:00:00 14,2 13,2 11 6 16 9 Z 1006,5 15 0,0
13.10.2019 04:00:00 14,2 13,2 10 5 16 8 Z 1006,6 - 0,0
13.10.2019 03:00:00 13,6 13,0 8 4 15 8 Z 1007,2 - 0,0
13.10.2019 02:00:00 13,3 12,8 10 5 14 8 Z 1007,5 - 0,0
13.10.2019 01:00:00 13,2 12,9 9 5 16 9 Z 1007,7 - 0,0
13.10.2019 00:00:00 12,8 12,5 13 7 21 11 ZZO 1008,3 - 0,2
12.10.2019 23:00:00 12,8 12,3 12 7 17 9 OZO 1008,7 10 0,0
12.10.2019 22:00:00 13,3 12,8 13 7 20 11 OZO 1009,0 - 0,2
12.10.2019 21:00:00 12,9 12,4 15 8 21 12 NO 1009,1 - 0,2
12.10.2019 20:00:00 12,7 12,2 14 8 22 12 NNO 1009,2 10 0,0
12.10.2019 19:00:00 12,7 12,2 11 6 19 11 N 1009,2 - 0,2
12.10.2019 18:00:00 12,7 12,2 11 6 22 12 N 1009,0 - 0,6
12.10.2019 17:00:00 13,2 12,6 7 4 16 9 N 1009,4 2,0 0,2
12.10.2019 16:00:00 13,0 12,4 8 4 14 7 NNO 1009,6 - 0,0
12.10.2019 15:00:00 13,0 12,5 8 4 14 7 N 1009,8 - 0,8
12.10.2019 14:00:00 13,0 12,5 7 4 13 7 N 1010,1 2,0 0,2
12.10.2019 13:00:00 12,9 12,4 11 6 16 9 N 1010,2 - 1,3
12.10.2019 12:00:00 13,4 12,9 4 2 5 3 NO 1009,5 - 1,0
12.10.2019 11:00:00 13,2 12,7 5 3 6 3 O 1009,2 - 0,6
12.10.2019 10:00:00 12,8 12,2 0 0 3 2 N 1008,9 - 1,2
12.10.2019 09:00:00 12,7 12,1 0 0 12 6 N 1008,4 - 0,2
12.10.2019 08:00:00 12,6 11,8 9 5 16 9 NNW 1008,2 2,0 0,8
12.10.2019 07:00:00 12,9 12,0 6 3 12 7 N 1007,7 - 0,4
12.10.2019 06:00:00 13,1 12,3 12 7 30 16 NNW 1007,7 - 1,4
12.10.2019 05:00:00 16,3 13,2 20 11 44 24 ZW 1007,1 15 0,0
12.10.2019 04:00:00 16,6 12,9 26 14 44 24 ZW 1007,0 - 0,0
12.10.2019 03:00:00 16,8 12,9 24 13 50 27 ZW 1007,3 - 0,0
12.10.2019 02:00:00 17,3 12,6 26 14 46 25 ZW 1007,4 - 0,0
12.10.2019 01:00:00 17,2 12,9 25 13 46 25 ZW 1007,8 - 0,0
12.10.2019 00:00:00 16,8 12,9 23 12 39 21 ZZW 1007,4 - 0,0
11.10.2019 23:00:00 17,1 12,8 24 13 50 27 ZZW 1007,7 - 0,0
11.10.2019 22:00:00 17,7 13,2 34 18 54 29 ZW 1008,3 - 0,0
11.10.2019 21:00:00 17,5 13,2 29 15 63 34 ZW 1007,8 - 0,0
11.10.2019 20:00:00 17,7 13,0 37 20 64 34 ZW 1008,0 - 0,0
11.10.2019 19:00:00 17,0 13,1 30 16 55 30 ZW 1008,1 - 0,0
11.10.2019 18:00:00 17,7 13,0 33 18 62 34 ZW 1008,2 - 0,0
11.10.2019 17:00:00 17,7 12,8 36 19 66 36 ZW 1008,3 - 0,0
11.10.2019 16:00:00 17,3 12,6 29 16 57 31 ZW 1008,4 - 0,0
11.10.2019 15:00:00 17,1 13,0 31 17 61 33 ZZW 1009,0 - 0,0
11.10.2019 14:00:00 16,4 12,7 31 17 60 32 ZZW 1009,6 15 0,2
11.10.2019 13:00:00 15,9 13,2 25 13 45 25 ZZW 1010,2 - 0,2
11.10.2019 12:00:00 15,4 13,2 27 14 47 25 ZZW 1010,6 - 0,0
11.10.2019 11:00:00 15,1 13,1 24 13 48 26 ZZW 1010,8 - 0,0
11.10.2019 10:00:00 15,1 12,6 23 12 36 19 ZZW 1011,2 - 0,0
11.10.2019 09:00:00 14,8 12,8 22 12 37 20 ZZW 1010,9 - 0,0
11.10.2019 08:00:00 14,6 12,6 22 12 39 21 ZZW 1011,1 - 0,0
11.10.2019 07:00:00 14,1 12,3 27 15 39 21 ZZW 1011,4 - 0,0
11.10.2019 06:00:00 15,1 12,6 22 12 39 21 ZZW 1011,7 - 0,0
11.10.2019 05:00:00 15,4 12,7 21 12 36 20 ZZW 1012,3 - 0,0
11.10.2019 04:00:00 15,2 12,0 23 13 44 24 ZZW 1012,5 - 0,0
11.10.2019 03:00:00 15,2 11,6 24 13 50 27 ZZW 1012,8 - 0,0
11.10.2019 02:00:00 15,1 11,1 27 14 59 32 ZZW 1012,6 15 0,0
11.10.2019 01:00:00 14,1 10,7 24 13 36 19 ZZW 1012,8 - 0,0
11.10.2019 00:00:00 14,0 10,4 22 12 37 20 Z 1013,2 - 0,0
10.10.2019 23:00:00 14,7 10,5 18 10 40 22 ZZW 1013,7 25 0,0
10.10.2019 22:00:00 14,5 10,5 22 12 32 18 ZZW 1014,2 - 0,0
10.10.2019 21:00:00 14,2 9,8 17 9 34 18 ZZW 1014,4 - 0,0
10.10.2019 20:00:00 15,3 9,6 21 11 45 24 ZW 1014,5 - 0,0
10.10.2019 19:00:00 15,8 9,5 23 12 49 26 ZW 1014,4 - 0,0
10.10.2019 18:00:00 16,4 10,5 24 13 53 28 ZW 1014,2 - 0,0
10.10.2019 17:00:00 16,3 9,9 24 13 51 27 ZW 1014,1 - 0,0
10.10.2019 16:00:00 16,7 9,4 24 13 60 32 WZW 1014,4 - 0,0
10.10.2019 15:00:00 16,4 10,3 26 14 53 29 W 1014,2 - 0,0
10.10.2019 14:00:00 15,7 10,0 31 17 57 31 W 1014,1 20 0,0
10.10.2019 13:00:00 15,5 9,2 31 17 51 28 W 1014,2 - 0,0
10.10.2019 12:00:00 15,3 10,3 30 16 52 28 W 1013,7 - 0,0
10.10.2019 11:00:00 14,7 9,3 30 16 50 27 W 1013,2 25 0,0
10.10.2019 10:00:00 14,0 9,8 31 17 50 27 W 1012,6 - 0,0
10.10.2019 09:00:00 12,8 9,2 15 8 39 21 ZW 1011,9 - 0,0
10.10.2019 08:00:00 12,6 9,1 26 14 50 27 W 1010,8 15 0,0
10.10.2019 07:00:00 12,5 9,1 29 15 46 25 W 1010,0 - 0,0
10.10.2019 06:00:00 12,6 9,1 29 16 48 26 W 1009,5 - 0,0
10.10.2019 05:00:00 12,7 8,6 28 15 43 23 W 1008,7 - 0,0
10.10.2019 04:00:00 12,7 8,8 29 16 46 25 W 1008,0 - 0,0
10.10.2019 03:00:00 13,0 8,5 29 16 50 27 W 1007,7 - 0,0
10.10.2019 02:00:00 13,0 8,7 23 12 46 25 W 1007,1 15 0,0
10.10.2019 01:00:00 11,8 9,4 11 6 24 13 ZW 1007,0 - 0,0
10.10.2019 00:00:00 11,2 9,8 9 5 24 13 ZZW 1006,7 - 0,0
09.10.2019 23:00:00 12,1 9,5 19 10 29 16 ZZW 1006,8 10 0,0
09.10.2019 22:00:00 12,2 9,2 17 9 29 16 ZW 1006,7 - 0,0
09.10.2019 21:00:00 12,6 9,2 15 8 37 20 ZZW 1006,9 - 0,0

tt = temperatuur
td = dauwpunt
ff = windsnelheid
fx = windstoten
dd = windrichting
ppp = luchtdruk
vv = zicht
rr = neerslag

Weerstations in de omgeving